Breckenridge, TX

5:49 AM CDT on September 21, 2017 (GMT -0500)
Stephens County

Weather History for KBKD - May, 2013

Change the Weather History Date:

Wednesday, May 1, 2013

  Actual Average (KMWL) Record (KMWL)
Temperature  
Mean Temperature 72 °F -  
Max Temperature 88 °F 79 °F 95 °F (2002)
Min Temperature 57 °F 57 °F 37 °F (2014)
Cooling Degree Days 8    
Growing Degree Days 22 (Base 50)    
Moisture  
Dew Point 60 °F    
Average Humidity 59    
Maximum Humidity 83    
Minimum Humidity 33    
Precipitation  
Precipitation 0.00 in - - ()
Sea Level Pressure  
Sea Level Pressure 29.84 in    
Wind  
Wind Speed 11 mph (SSE)    
Max Wind Speed 21 mph    
Max Gust Speed 30 mph    
Visibility 10 miles    
Events Thunderstorm    
Averages and records for this station are not official NWS values.
T = Trace of Precipitation, MM = Missing Value Source: NWS Daily Summary

Daily Weather History Graph

Daily Weather History Graph

Search for Another Location

Airport or City:

Trip Planner

Search our weather history database for the weather conditions in past years. The results will help you decide how hot, cold, wet, or windy it might be!

Date:

Astronomy

May. 01, 2013 Rise Set
Actual Time 6:48 AM CDT 8:17 PM CDT
Civil Twilight 6:22 AM CDT 8:43 PM CDT
Nautical Twilight 5:50 AM CDT 9:15 PM CDT
Astronomical Twilight 5:17 AM CDT 9:48 PM CDT
Moon 1:27 AM CDT (5/1) 12:28 PM CDT (5/1)
Length of Visible Light 14h 21m
Length of Day
13h 29m
Waning Gibbous, 59% of the Moon is Illuminated
May 1
Waning Gibbous
May 2
Last Quarter
May 9
New
May 17
First Quarter
May 24
Full

Hourly Weather History & Observations

Time (CDT) Temp. Heat Index Dew Point Humidity Pressure Visibility Wind Dir Wind Speed Gust Speed Precip Events Conditions
12:16 AM 71.6 °F - 57.2 °F 60% 29.82 in 10.0 mi South 8.1 mph - N/A   Clear
12:34 AM 71.6 °F - 59.0 °F 64% 29.82 in 10.0 mi South 6.9 mph - N/A   Clear
12:54 AM 71.6 °F - 59.0 °F 64% 29.81 in 10.0 mi South 6.9 mph - N/A   Clear
1:14 AM 69.8 °F - 59.0 °F 68% 29.80 in 10.0 mi SSE 6.9 mph - N/A   Clear
1:34 AM 69.8 °F - 59.0 °F 68% 29.78 in 10.0 mi SE 9.2 mph - N/A   Clear
1:55 AM 69.8 °F - 59.0 °F 68% 29.77 in 10.0 mi SSE 10.4 mph - N/A   Clear
2:14 AM 69.8 °F - 59.0 °F 68% 29.75 in 10.0 mi SSE 12.7 mph - N/A   Clear
2:34 AM 69.8 °F - 60.8 °F 73% 29.75 in 10.0 mi SSE 10.4 mph - N/A   Clear
2:54 AM 69.8 °F - 60.8 °F 73% 29.76 in 10.0 mi SSE 11.5 mph - N/A   Clear
3:14 AM 69.8 °F - 60.8 °F 73% 29.75 in 10.0 mi SSE 10.4 mph - N/A   Clear
3:34 AM 69.8 °F - 59.0 °F 68% 29.74 in 10.0 mi SE 13.8 mph 17.3 mph N/A   Clear
3:54 AM 69.8 °F - 60.8 °F 73% 29.74 in 10.0 mi SSE 13.8 mph - N/A   Clear
4:14 AM 69.8 °F - 60.8 °F 73% 29.74 in 10.0 mi SSE 13.8 mph - N/A   Clear
4:34 AM 69.8 °F - 60.8 °F 73% 29.74 in 10.0 mi SSE 11.5 mph - N/A   Clear
4:54 AM 69.8 °F - 60.8 °F 73% 29.73 in 10.0 mi SSE 16.1 mph 21.9 mph N/A   Clear
5:14 AM 69.8 °F - 60.8 °F 73% 29.73 in 10.0 mi SSE 17.3 mph 24.2 mph N/A   Clear
5:34 AM 69.8 °F - 60.8 °F 73% 29.74 in 10.0 mi SSE 13.8 mph 19.6 mph N/A   Clear
5:54 AM 69.8 °F - 60.8 °F 73% 29.76 in 10.0 mi SSE 9.2 mph 18.4 mph N/A   Clear
6:15 AM 68.0 °F - 62.6 °F 83% 29.76 in 10.0 mi South 13.8 mph 19.6 mph N/A   Clear
6:34 AM 68.0 °F - 62.6 °F 83% 29.77 in 10.0 mi South 13.8 mph 18.4 mph N/A   Clear
6:54 AM 68.0 °F - 62.6 °F 83% 29.77 in 10.0 mi South 10.4 mph 17.3 mph N/A   Clear
7:15 AM 68.0 °F - 62.6 °F 83% 29.79 in 10.0 mi SSE 6.9 mph - N/A   Clear
7:34 AM 68.0 °F - 62.6 °F 83% 29.80 in 10.0 mi South 10.4 mph - N/A   Clear
7:56 AM 69.8 °F - 62.6 °F 78% 29.80 in 10.0 mi SSE 6.9 mph - N/A   Clear
8:14 AM 71.6 °F - 62.6 °F 73% 29.80 in 10.0 mi South 9.2 mph - N/A   Clear
8:35 AM 73.4 °F - 62.6 °F 69% 29.80 in 10.0 mi South 13.8 mph 18.4 mph N/A   Clear
8:54 AM 75.2 °F - 62.6 °F 65% 29.81 in 10.0 mi SSE 11.5 mph 21.9 mph N/A   Clear
9:34 AM 77.0 °F - 62.6 °F 61% 29.81 in 10.0 mi SSE 15.0 mph 19.6 mph N/A   Clear
9:54 AM 78.8 °F - 62.6 °F 57% 29.81 in 10.0 mi SSE 13.8 mph 17.3 mph N/A   Clear
10:14 AM 78.8 °F - 62.6 °F 57% 29.83 in 10.0 mi South 13.8 mph 18.4 mph N/A   Clear
10:35 AM 80.6 °F 82.3 °F 64.4 °F 58% 29.84 in 10.0 mi South 13.8 mph 18.4 mph N/A   Scattered Clouds
10:55 AM 80.6 °F 81.8 °F 62.6 °F 54% 29.84 in 10.0 mi South 15.0 mph 21.9 mph N/A   Mostly Cloudy
11:17 AM 78.8 °F - 62.6 °F 57% 29.86 in 10.0 mi SW 13.8 mph 18.4 mph N/A   Overcast
11:34 AM 77.0 °F - 62.6 °F 61% 29.87 in 10.0 mi SSW 16.1 mph 21.9 mph N/A   Overcast
11:56 AM 80.6 °F 81.8 °F 62.6 °F 54% 29.88 in 10.0 mi SSW 13.8 mph 23.0 mph N/A   Mostly Cloudy
12:15 PM 79.5 °F - 61.7 °F 54% 29.88 in 10.0 mi SSW 12.7 mph 17.3 mph N/A   Mostly Cloudy
12:35 PM 79.9 °F - 61.0 °F 52% 29.87 in 10.0 mi SSE 12.7 mph 17.3 mph N/A   Mostly Cloudy
12:55 PM 81.3 °F 82.1 °F 60.8 °F 50% 29.85 in 10.0 mi SE 12.7 mph 21.9 mph N/A   Scattered Clouds
1:15 PM 82.2 °F 82.7 °F 60.8 °F 48% 29.85 in 10.0 mi SSE 11.5 mph - N/A   Scattered Clouds
1:35 PM 82.4 °F 82.9 °F 60.8 °F 48% 29.85 in 10.0 mi SE 11.5 mph 18.4 mph N/A   Scattered Clouds
1:55 PM 82.8 °F 83.3 °F 61.2 °F 48% 29.85 in 10.0 mi South 8.1 mph - N/A   Mostly Cloudy
2:15 PM 82.6 °F 82.9 °F 60.6 °F 47% 29.85 in 10.0 mi SSE 8.1 mph 16.1 mph N/A   Mostly Cloudy
2:35 PM 85.1 °F 85.0 °F 60.1 °F 43% 29.85 in 10.0 mi South 9.2 mph - N/A   Mostly Cloudy
2:55 PM 83.3 °F 83.2 °F 59.5 °F 44% 29.85 in 10.0 mi SE 6.9 mph - N/A   Mostly Cloudy
3:15 PM 84.0 °F 83.8 °F 59.5 °F 43% 29.85 in 10.0 mi SSE 8.1 mph 17.3 mph N/A   Scattered Clouds
3:35 PM 86.4 °F 85.9 °F 59.7 °F 40% 29.85 in 10.0 mi ESE 8.1 mph - N/A   Mostly Cloudy
3:55 PM 86.5 °F 85.9 °F 58.6 °F 39% 29.84 in 10.0 mi SSE 3.5 mph - N/A   Scattered Clouds
4:15 PM 86.5 °F 85.6 °F 58.1 °F 38% 29.84 in 10.0 mi SE 5.8 mph - N/A   Scattered Clouds
4:35 PM 85.3 °F 84.4 °F 57.9 °F 39% 29.84 in 10.0 mi ESE 6.9 mph - N/A   Scattered Clouds
4:55 PM 87.1 °F 86.1 °F 57.9 °F 37% 29.84 in 10.0 mi Calm Calm - N/A   Clear
5:15 PM 86.4 °F 85.1 °F 56.7 °F 36% 29.84 in 10.0 mi SSE 3.5 mph - N/A   Clear
5:35 PM 87.3 °F 85.9 °F 56.3 °F 35% 29.84 in 10.0 mi SSE 3.5 mph - N/A   Clear
5:55 PM 87.4 °F 85.7 °F 54.7 °F 33% 29.84 in 10.0 mi SE 5.8 mph - N/A   Clear
6:15 PM 87.3 °F 86.1 °F 57.6 °F 36% 29.84 in 10.0 mi SE 9.2 mph - N/A   Clear
6:35 PM 87.3 °F 86.3 °F 58.3 °F 37% 29.83 in 10.0 mi SE 9.2 mph - N/A   Clear
6:55 PM 86.5 °F 86.1 °F 59.7 °F 40% 29.84 in 10.0 mi ESE 13.8 mph - N/A   Clear
7:15 PM 85.3 °F 85.4 °F 60.8 °F 44% 29.85 in 10.0 mi East 13.8 mph 20.7 mph N/A   Clear
7:35 PM 83.3 °F 83.7 °F 61.3 °F 47% 29.87 in 10.0 mi East 16.1 mph - N/A   Scattered Clouds
7:55 PM 81.5 °F 82.4 °F 61.9 °F 51% 29.88 in 10.0 mi East 18.4 mph 21.9 mph N/A Thunderstorm Mostly Cloudy
8:15 PM 80.6 °F 81.6 °F 61.7 °F 52% 29.90 in 10.0 mi East 19.6 mph 24.2 mph N/A Thunderstorm Thunderstorm
8:35 PM 79.7 °F - 61.5 °F 54% 29.91 in 10.0 mi East 19.6 mph 25.3 mph N/A Thunderstorm Thunderstorm
9:15 PM 78.1 °F - 61.5 °F 57% 29.91 in 10.0 mi ESE 20.7 mph 27.6 mph N/A Thunderstorm Thunderstorm
9:35 PM 77.4 °F - 61.2 °F 57% 29.93 in 10.0 mi ESE 17.3 mph 28.8 mph N/A   Clear
9:55 PM 77.0 °F - 61.0 °F 58% 29.93 in 10.0 mi East 16.1 mph 20.7 mph N/A   Clear
10:15 PM 76.3 °F - 61.2 °F 59% 29.96 in 10.0 mi East 6.9 mph - N/A   Clear
10:35 PM 64.9 °F - 52.2 °F 63% 30.01 in 10.0 mi North 18.4 mph 29.9 mph N/A   Mostly Cloudy
10:55 PM 62.1 °F - 50.2 °F 65% 30.02 in 10.0 mi North 18.4 mph 26.5 mph N/A   Overcast
11:15 PM 60.3 °F - 49.1 °F 67% 30.04 in 10.0 mi North 13.8 mph 25.3 mph N/A   Overcast
11:35 PM 58.3 °F - 47.3 °F 67% 30.06 in 10.0 mi North 17.3 mph 27.6 mph N/A   Overcast
11:55 PM 57.4 °F - 47.1 °F 69% 30.07 in 10.0 mi North 16.1 mph 24.2 mph N/A   Overcast